Volver al catálogo

STARLINK-36971

ActivoComunicacionesSSO
NORAD 68165·PAYLOAD·🇺🇸 United States

Lanzado Mar 13, 2026 desde Vandenberg Space Force Base

Loading…

Próximos Pases (próximas 24 horas)

TLE

ActualizadoSource: CelesTrak SupGP

Época: Sep 14, 2026, 23:00 UTC

1 68165C 26049Z   26257.95881944  .00043530  00000+0  13513-2 0  2573
2 68165  97.2838 278.0463 0001430  88.3131 327.7196 15.33416822    18

Sigue STARLINK-36971 en tiempo real con AllMySat

Download on the App Store